{"data":{"norad_id":65159,"epoch":"2026-09-19T10:07:04.775520Z","epoch_age_seconds":107605,"freshness":"FRESH","line1":"1 65159U 25172A   26262.42158305  .00000002  00000+0  20776-4 0  9996","line2":"2 65159  98.7069 320.4226 0000850  95.1871 264.9403 14.21503427 57177","mean_motion":14.21503427,"eccentricity":8.5e-5,"inclination_deg":98.7069,"raan_deg":320.4226,"arg_perigee_deg":95.1871,"mean_anomaly_deg":264.9403,"bstar":2.0776e-5,"rev_number":5717,"period_min":101.30119791825,"perigee_km":819.66093885922,"apogee_km":820.88466852584,"semimajor_km":7198.4098036925,"source":"CELESTRAK","updated_at":"2026-09-20T09:00:33.257667Z"}}